Location: Caltech
(34.1382°N, 118.1253°W)
Time: 14:54:15
(UTC-07:00)

Cosmos 1833 Rocket - Visible Passes

Search period start: 23 September 2017 00:00
Search period end: 03 October 2017 00:00
Orbit: 833 x 839 km, 71.0° (Epoch: 23 September)

Date Brightness Start Highest point End Pass type
(mag) Time Alt. Az. Time Alt. Az. Time Alt. Az.
25 Sep5.521:19:19NNE21:19:19NNE21:04:34SSWvisible
26 Sep 5.3 06:04:04 10° N 06:08:13 21° ENE 06:12:20 10° ESE visible
26 Sep 4.0 20:49:06 10° SSW 21:01:49 - NNE 20:51:29 26° S visible
26 Sep5.822:43:23NNW22:43:23NNW22:33:28WSWvisible
27 Sep 5.4 05:47:33 10° NNE 05:51:28 19° ENE 05:55:22 10° ESE visible
27 Sep 2.5 20:32:27 10° S 20:38:01 70° ESE 20:43:39 10° NNE visible
27 Sep 5.3 22:19:25 10° W 22:22:29 15° NW 22:25:34 10° NNW visible
28 Sep 5.4 05:31:03 10° NNE 05:34:43 17° ENE 05:38:22 10° E visible
28 Sep 2.6 20:15:48 10° S 20:21:21 64° ESE 20:26:55 10° NNE visible
28 Sep 5.2 22:02:20 10° W 22:05:43 16° NW 22:09:08 10° NNW visible
29 Sep 5.5 05:14:35 10° NNE 05:17:58 16° NE 05:21:20 10° E visible
29 Sep 2.7 19:59:11 10° S 20:04:41 58° ESE 20:10:12 10° NNE visible
29 Sep 5.2 21:45:18 10° W 21:48:58 17° WNW 21:52:39 10° NNW visible
30 Sep 5.5 04:58:09 10° NNE 05:01:13 15° NE 05:04:15 10° E visible
30 Sep 2.8 19:42:34 10° S 19:48:00 52° ESE 19:53:28 10° NNE visible
30 Sep 5.1 21:28:18 10° WSW 21:32:13 19° WNW 21:36:09 10° NNW visible
01 Oct 5.6 04:41:46 10° NNE 04:44:27 13° NE 04:47:06 10° E visible
01 Oct 2.9 19:25:58 10° S 19:31:20 48° ESE 19:36:43 10° NNE visible
01 Oct 5.0 21:11:20 10° WSW 21:15:28 21° WNW 21:19:37 10° N visible
02 Oct 5.6 04:25:28 10° NNE 04:27:40 12° NE 04:29:52 10° ENE visible
02 Oct 2.7 06:06:39 10° NNW 06:12:17 84° WSW 06:17:52 10° SSE visible
02 Oct 3.0 19:09:22 10° S 19:14:40 43° ESE 19:19:57 10° NE visible
02 Oct 4.9 20:54:23 10° WSW 20:58:43 22° WNW 21:03:05 10° N visible
